Retour au catalogue

STARLINK-31210

ActifCommunicationsVLEO
NORAD 59033·PAYLOAD·🇺🇸 United States

Lancé Feb 25, 2024 depuis Cape Canaveral Space Force Station

Loading…

Prochains Passages (prochaines 24 heures)

TLE

FraisSource: CelesTrak SupGP

Époque: Sep 14, 2026, 20:49 UTC

1 59033C 24038L   26257.86784722  .00062857  00000+0  22767-2 0  2573
2 59033  43.0041  35.2711 0001483 276.3050 299.5533 15.27547035    18

Suivez STARLINK-31210 en temps réel avec AllMySat

Download on the App Store